Time,TemperatureF,DewpointF,PressureIn,WindDirection,WindDirectionDegrees,WindSpeedMPH,WindSpeedGustMPH,Humidity,HourlyPrecipIn,Conditions,Clouds,dailyrainin,SoftwareType,DateUTC
2013-03-15 00:04:00,37.9,35.0,29.08,SSE,158,5.8,5.8,89,0.00,RA,,0.00,WeatherDisplay:10.37,2013-03-15 00:04:00,
2013-03-15 00:09:00,37.9,35.0,29.08,SE,135,5.8,7.1,89,0.00,RA,,0.00,WeatherDisplay:10.37,2013-03-15 00:09:00,
2013-03-15 00:14:00,37.9,35.0,29.07,SSW,202,10.4,10.4,89,0.00,CLR,,0.00,WeatherDisplay:10.37,2013-03-15 00:14:00,
2013-03-15 00:19:00,37.9,35.0,29.07,SSE,158,8.1,8.1,89,0.00,CLR,,0.00,WeatherDisplay:10.37,2013-03-15 00:19:00,
2013-03-15 00:24:00,37.9,35.0,29.07,SE,135,8.9,8.9,89,0.00,CLR,,0.00,WeatherDisplay:10.37,2013-03-15 00:24:00,
2013-03-15 00:29:00,37.9,35.0,29.06,South,180,10.4,10.4,89,0.00,CLR,,0.00,WeatherDisplay:10.37,2013-03-15 00:29:00,
2013-03-15 00:34:00,37.9,35.0,29.06,ESE,112,11.5,11.5,89,0.00,CLR,,0.00,WeatherDisplay:10.37,2013-03-15 00:34:00,
2013-03-15 00:39:00,37.9,35.0,29.06,WSW,248,4.6,7.9,89,0.00,CLR,,0.00,WeatherDisplay:10.37,2013-03-15 00:39:00,
2013-03-15 00:44:00,37.9,35.0,29.06,SSW,202,13.8,13.8,89,0.00,CLR,,0.00,WeatherDisplay:10.37,2013-03-15 00:44:00,
2013-03-15 00:49:00,37.9,35.0,29.06,SSW,202,9.2,9.2,89,0.00,CLR,,0.00,WeatherDisplay:10.37,2013-03-15 00:49:00,
2013-03-15 00:54:00,37.8,34.8,29.06,South,180,12.1,12.1,89,0.00,CLR,,0.00,WeatherDisplay:10.37,2013-03-15 00:54:00,
2013-03-15 00:59:00,37.6,34.6,29.05,SSW,202,10.4,10.4,89,0.00,CLR,,0.00,WeatherDisplay:10.37,2013-03-15 00:59:00,
2013-03-15 01:04:00,37.6,34.6,29.05,SSW,202,9.2,9.2,89,0.00,CLR,,0.00,WeatherDisplay:10.37,2013-03-15 01:04:00,
2013-03-15 01:09:00,37.6,34.6,29.05,WSW,248,8.1,9.0,89,0.00,CLR,,0.00,WeatherDisplay:10.37,2013-03-15 01:09:00,
2013-03-15 01:14:00,37.6,34.6,29.04,SSE,158,12.7,12.7,89,0.00,CLR,,0.00,WeatherDisplay:10.37,2013-03-15 01:14:00,
2013-03-15 01:19:00,37.6,34.6,29.04,SSE,158,11.5,11.5,89,0.00,CLR,,0.00,WeatherDisplay:10.37,2013-03-15 01:19:00,
2013-03-15 01:24:00,37.6,34.6,29.04,SSW,202,11.6,11.6,89,0.00,CLR,,0.00,WeatherDisplay:10.37,2013-03-15 01:24:00,
2013-03-15 01:29:00,37.4,34.5,29.04,SSW,202,10.4,10.4,89,0.00,CLR,,0.00,WeatherDisplay:10.37,2013-03-15 01:29:00,
2013-03-15 01:34:00,37.6,34.6,29.03,SSW,202,17.3,17.3,89,0.00,CLR,,0.00,WeatherDisplay:10.37,2013-03-15 01:34:00,
2013-03-15 01:39:00,37.6,34.6,29.03,SW,225,11.5,16.2,89,0.00,CLR,,0.00,WeatherDisplay:10.37,2013-03-15 01:39:00,
2013-03-15 01:44:00,37.6,34.6,29.03,SSW,202,11.5,12.1,89,0.00,CLR,,0.00,WeatherDisplay:10.37,2013-03-15 01:44:00,
2013-03-15 01:49:00,37.8,34.8,29.03,SSE,158,5.8,7.9,89,0.00,CLR,,0.00,WeatherDisplay:10.37,2013-03-15 01:49:00,
2013-03-15 01:54:00,37.8,34.8,29.03,SW,225,6.9,7.3,89,0.00,CLR,,0.00,WeatherDisplay:10.37,2013-03-15 01:54:00,
2013-03-15 01:59:00,37.8,34.8,29.01,SW,225,9.2,9.9,89,0.00,CLR,,0.00,WeatherDisplay:10.37,2013-03-15 01:59:00,
2013-03-15 02:04:00,37.8,34.8,29.01,South,180,13.8,13.8,89,0.00,CLR,,0.00,WeatherDisplay:10.37,2013-03-15 02:04:00,
2013-03-15 02:09:00,37.6,34.6,29.01,SSW,202,5.8,12.1,89,0.00,CLR,,0.00,WeatherDisplay:10.37,2013-03-15 02:09:00,
2013-03-15 02:14:00,37.6,34.6,29.01,South,180,17.3,17.3,89,0.00,CLR,,0.00,WeatherDisplay:10.37,2013-03-15 02:14:00,
2013-03-15 02:19:00,37.6,34.6,29.01,South,180,11.5,11.5,89,0.00,CLR,,0.00,WeatherDisplay:10.37,2013-03-15 02:19:00,
2013-03-15 02:24:00,37.4,34.5,29.01,SSW,202,11.5,11.6,89,0.00,CLR,,0.00,WeatherDisplay:10.37,2013-03-15 02:24:00,
2013-03-15 02:29:00,37.4,34.5,29.01,SSW,202,13.8,14.4,89,0.00,CLR,,0.00,WeatherDisplay:10.37,2013-03-15 02:29:00,
2013-03-15 02:34:00,37.2,34.3,29.01,SW,225,13.8,13.8,89,0.00,CLR,,0.00,WeatherDisplay:10.37,2013-03-15 02:34:00,
2013-03-15 02:39:00,37.2,34.3,28.99,South,180,8.1,8.1,89,0.00,CLR,,0.00,WeatherDisplay:10.37,2013-03-15 02:39:00,
2013-03-15 02:44:00,37.2,34.3,28.99,SSE,158,9.2,9.2,89,0.00,CLR,,0.00,WeatherDisplay:10.37,2013-03-15 02:44:00,
2013-03-15 02:49:00,37.2,34.3,28.99,South,180,3.5,5.7,89,0.00,CLR,,0.00,WeatherDisplay:10.37,2013-03-15 02:49:00,
2013-03-15 02:54:00,37.4,34.5,28.99,South,180,11.5,11.5,89,0.00,CLR,,0.00,WeatherDisplay:10.37,2013-03-15 02:54:00,
2013-03-15 02:59:00,37.8,34.8,28.98,SE,135,10.4,10.5,89,0.00,CLR,,0.00,WeatherDisplay:10.37,2013-03-15 02:59:00,
2013-03-15 03:04:00,37.8,34.8,28.97,SSE,158,12.7,12.7,89,0.00,CLR,,0.00,WeatherDisplay:10.37,2013-03-15 03:04:00,
2013-03-15 03:09:00,37.8,34.8,28.97,SSE,158,9.2,9.2,89,0.00,CLR,,0.00,WeatherDisplay:10.37,2013-03-15 03:09:00,
2013-03-15 03:14:00,37.9,35.0,28.97,SW,225,5.8,6.3,89,0.00,CLR,,0.00,WeatherDisplay:10.37,2013-03-15 03:14:00,
2013-03-15 03:19:00,37.8,34.8,28.96,SSE,158,5.8,5.8,89,0.00,CLR,,0.00,WeatherDisplay:10.37,2013-03-15 03:19:00,
2013-03-15 03:24:00,37.8,34.8,28.96,SSE,158,6.9,7.1,89,0.00,CLR,,0.00,WeatherDisplay:10.37,2013-03-15 03:24:00,
2013-03-15 03:29:00,37.8,34.8,28.96,South,180,5.8,6.0,89,0.00,CLR,,0.00,WeatherDisplay:10.37,2013-03-15 03:29:00,
2013-03-15 03:34:00,37.8,34.8,28.96,South,180,5.8,7.1,89,0.00,CLR,,0.00,WeatherDisplay:10.37,2013-03-15 03:34:00,
2013-03-15 03:39:00,37.8,34.8,28.96,SSE,158,6.9,6.9,89,0.00,CLR,,0.00,WeatherDisplay:10.37,2013-03-15 03:39:00,
2013-03-15 03:44:00,37.8,34.8,28.96,South,180,9.2,9.2,89,0.00,CLR,,0.00,WeatherDisplay:10.37,2013-03-15 03:44:00,
2013-03-15 03:49:00,37.8,34.8,28.96,SSE,158,9.2,9.2,89,0.00,CLR,,0.00,WeatherDisplay:10.37,2013-03-15 03:49:00,
2013-03-15 03:54:00,37.6,34.6,28.96,SSE,158,17.3,17.3,89,0.00,CLR,,0.00,WeatherDisplay:10.37,2013-03-15 03:54:00,
2013-03-15 03:59:00,37.8,34.8,28.96,SSE,158,8.1,8.5,89,0.00,CLR,,0.00,WeatherDisplay:10.37,2013-03-15 03:59:00,
2013-03-15 04:00:00,37.8,34.8,28.96,SSE,158,8.1,8.5,89,0.00,CLR,,0.00,WeatherDisplay:10.37,2013-03-15 04:00:00,
2013-03-15 04:05:00,37.6,34.6,28.94,South,180,5.8,6.1,89,0.00,CLR,,0.00,WeatherDisplay:10.37,2013-03-15 04:05:00,
2013-03-15 04:10:00,37.6,34.6,28.94,South,180,9.2,9.2,89,0.00,CLR,,0.00,WeatherDisplay:10.37,2013-03-15 04:10:00,
2013-03-15 04:15:00,37.6,34.6,28.94,South,180,8.1,8.1,89,0.00,CLR,,0.00,WeatherDisplay:10.37,2013-03-15 04:15:00,
2013-03-15 04:20:00,37.6,34.6,28.94,South,180,12.7,15.5,89,0.00,CLR,,0.00,WeatherDisplay:10.37,2013-03-15 04:20:00,
2013-03-15 04:25:00,37.6,34.6,28.94,SSE,158,12.7,12.7,89,0.00,CLR,,0.00,WeatherDisplay:10.37,2013-03-15 04:25:00,
2013-03-15 04:30:00,37.6,34.6,28.94,SSW,202,15.0,15.0,89,0.00,CLR,,0.00,WeatherDisplay:10.37,2013-03-15 04:30:00,
2013-03-15 04:35:00,37.6,34.6,28.94,SSE,158,13.8,13.8,89,0.00,CLR,,0.00,WeatherDisplay:10.37,2013-03-15 04:35:00,
2013-03-15 04:40:00,37.6,34.6,28.92,SSW,202,11.5,12.6,89,0.00,CLR,,0.00,WeatherDisplay:10.37,2013-03-15 04:40:00,
2013-03-15 04:45:00,37.6,34.6,28.92,South,180,11.5,11.9,89,0.00,CLR,,0.00,WeatherDisplay:10.37,2013-03-15 04:45:00,
2013-03-15 04:50:00,37.6,34.6,28.92,SSE,158,8.1,11.3,89,0.00,CLR,,0.00,WeatherDisplay:10.37,2013-03-15 04:50:00,
2013-03-15 04:55:00,37.4,34.5,28.92,SSE,158,10.4,10.4,89,0.00,CLR,,0.00,WeatherDisplay:10.37,2013-03-15 04:55:00,
2013-03-15 05:00:00,37.4,34.5,28.92,SE,135,13.8,13.9,89,0.00,CLR,,0.00,WeatherDisplay:10.37,2013-03-15 05:00:00,
2013-03-15 05:05:00,37.4,34.5,28.92,South,180,16.1,16.1,89,0.00,CLR,,0.00,WeatherDisplay:10.37,2013-03-15 05:05:00,
2013-03-15 05:10:00,37.4,34.5,28.92,SSE,158,4.6,8.3,89,0.00,CLR,,0.00,WeatherDisplay:10.37,2013-03-15 05:10:00,
2013-03-15 05:15:00,37.4,34.5,28.92,South,180,11.5,11.5,89,0.00,CLR,,0.00,WeatherDisplay:10.37,2013-03-15 05:15:00,
2013-03-15 05:20:00,37.4,34.5,28.92,South,180,9.2,9.2,89,0.00,CLR,,0.00,WeatherDisplay:10.37,2013-03-15 05:20:00,
2013-03-15 05:25:00,37.2,34.3,28.92,SSW,202,8.1,8.1,89,0.00,CLR,,0.00,WeatherDisplay:10.37,2013-03-15 05:25:00,
2013-03-15 05:30:00,37.2,34.3,28.92,SSE,158,8.1,8.3,89,0.00,CLR,,0.00,WeatherDisplay:10.37,2013-03-15 05:30:00,
2013-03-15 05:35:00,37.2,34.6,28.92,SSE,158,16.1,16.1,90,0.00,CLR,,0.00,WeatherDisplay:10.37,2013-03-15 05:35:00,
2013-03-15 05:40:00,37.2,34.6,28.92,South,180,10.4,10.4,90,0.00,CLR,,0.00,WeatherDisplay:10.37,2013-03-15 05:40:00,
2013-03-15 05:45:00,37.2,34.6,28.92,South,180,12.7,12.7,90,0.00,CLR,,0.00,WeatherDisplay:10.37,2013-03-15 05:45:00,
2013-03-15 05:50:00,37.2,34.6,28.91,South,180,12.7,12.7,90,0.00,CLR,,0.00,WeatherDisplay:10.37,2013-03-15 05:50:00,
2013-03-15 05:55:00,37.2,34.6,28.91,SW,225,11.5,11.8,90,0.00,CLR,,0.00,WeatherDisplay:10.37,2013-03-15 05:55:00,
2013-03-15 06:00:00,37.2,34.6,28.91,SSE,158,6.9,7.4,90,0.00,CLR,,0.00,WeatherDisplay:10.37,2013-03-15 06:00:00,
2013-03-15 06:05:00,37.2,34.6,28.90,South,180,9.2,9.2,90,0.00,CLR,,0.00,WeatherDisplay:10.37,2013-03-15 06:05:00,
2013-03-15 06:10:00,37.2,34.6,28.90,SSE,158,11.5,14.1,90,0.00,CLR,,0.00,WeatherDisplay:10.37,2013-03-15 06:10:00,
2013-03-15 06:15:00,37.2,34.6,28.90,WNW,292,8.1,9.6,90,0.00,CLR,,0.00,WeatherDisplay:10.37,2013-03-15 06:15:00,
2013-03-15 06:20:00,37.2,34.6,28.90,South,180,6.9,6.9,90,0.02,RA,,0.02,WeatherDisplay:10.37,2013-03-15 06:20:00,
2013-03-15 06:25:00,37.0,34.4,28.90,South,180,10.4,10.4,90,0.02,RA,,0.02,WeatherDisplay:10.37,2013-03-15 06:25:00,
2013-03-15 06:30:00,37.0,34.4,28.90,South,180,10.4,10.4,90,0.02,CLR,,0.02,WeatherDisplay:10.37,2013-03-15 06:30:00,
2013-03-15 06:35:00,37.0,34.4,28.90,SSE,158,9.2,9.2,90,0.02,CLR,,0.02,WeatherDisplay:10.37,2013-03-15 06:35:00,
2013-03-15 06:40:00,37.0,34.4,28.90,South,180,18.4,18.4,90,0.02,CLR,,0.02,WeatherDisplay:10.37,2013-03-15 06:40:00,
2013-03-15 06:45:00,37.0,34.7,28.90,SSE,158,10.4,10.4,91,0.02,CLR,,0.02,WeatherDisplay:10.37,2013-03-15 06:45:00,
2013-03-15 06:50:00,37.2,34.8,28.90,SSW,202,8.1,9.8,91,0.02,CLR,,0.02,WeatherDisplay:10.37,2013-03-15 06:50:00,
2013-03-15 06:55:00,37.2,34.8,28.90,SSE,158,17.3,17.3,91,0.02,CLR,,0.02,WeatherDisplay:10.37,2013-03-15 06:55:00,
2013-03-15 07:00:00,37.2,34.8,28.90,South,180,5.8,6.3,91,0.02,CLR,,0.02,WeatherDisplay:10.37,2013-03-15 07:00:00,
2013-03-15 07:05:00,37.2,34.8,28.90,South,180,3.5,3.8,91,0.02,CLR,,0.02,WeatherDisplay:10.37,2013-03-15 07:05:00,
2013-03-15 07:10:00,37.2,34.8,28.89,South,180,8.1,8.1,91,0.02,CLR,,0.02,WeatherDisplay:10.37,2013-03-15 07:10:00,
2013-03-15 07:15:00,37.2,34.8,28.89,South,180,6.9,6.9,91,0.02,CLR,,0.02,WeatherDisplay:10.37,2013-03-15 07:15:00,
2013-03-15 07:20:00,37.2,34.8,28.89,SSE,158,6.9,11.1,91,0.00,CLR,,0.02,WeatherDisplay:10.37,2013-03-15 07:20:00,
2013-03-15 07:25:00,37.0,34.7,28.89,South,180,8.1,8.1,91,0.00,CLR,,0.02,WeatherDisplay:10.37,2013-03-15 07:25:00,
2013-03-15 07:30:00,37.0,34.7,28.89,South,180,12.7,13.1,91,0.00,CLR,,0.02,WeatherDisplay:10.37,2013-03-15 07:30:00,
2013-03-15 07:35:00,37.2,34.8,28.88,SE,135,8.1,8.1,91,0.00,CLR,,0.02,WeatherDisplay:10.37,2013-03-15 07:35:00,
2013-03-15 07:40:00,37.2,34.8,28.88,SSE,158,10.4,10.4,91,0.00,CLR,,0.02,WeatherDisplay:10.37,2013-03-15 07:40:00,
2013-03-15 07:45:00,37.2,34.8,28.88,SSW,202,13.8,13.8,91,0.00,CLR,,0.02,WeatherDisplay:10.37,2013-03-15 07:45:00,
2013-03-15 07:50:00,37.2,34.8,28.88,South,180,9.2,9.2,91,0.00,CLR,,0.02,WeatherDisplay:10.37,2013-03-15 07:50:00,
2013-03-15 07:55:00,37.2,34.8,28.88,SSW,202,5.8,5.8,91,0.00,CLR,,0.02,WeatherDisplay:10.37,2013-03-15 07:55:00,
2013-03-15 08:00:00,37.2,34.8,28.88,SSW,202,12.7,12.7,91,0.00,CLR,,0.02,WeatherDisplay:10.37,2013-03-15 08:00:00,
2013-03-15 08:05:00,37.2,34.8,28.88,SSE,158,8.1,8.1,91,0.00,CLR,,0.02,WeatherDisplay:10.37,2013-03-15 08:05:00,
2013-03-15 08:10:00,37.2,34.8,28.88,South,180,11.5,11.5,91,0.00,CLR,,0.02,WeatherDisplay:10.37,2013-03-15 08:10:00,
2013-03-15 08:15:00,37.2,34.8,28.88,SSW,202,9.2,11.5,91,0.00,CLR,,0.02,WeatherDisplay:10.37,2013-03-15 08:15:00,
2013-03-15 08:20:00,37.2,34.8,28.88,SE,135,6.9,17.1,91,0.00,CLR,,0.02,WeatherDisplay:10.37,2013-03-15 08:20:00,
2013-03-15 08:25:00,37.2,34.8,28.88,South,180,8.1,8.1,91,0.00,CLR,,0.02,WeatherDisplay:10.37,2013-03-15 08:25:00,
2013-03-15 08:30:00,37.2,34.8,28.88,SSW,202,6.9,6.9,91,0.00,CLR,,0.02,WeatherDisplay:10.37,2013-03-15 08:30:00,
2013-03-15 08:35:00,37.6,35.2,28.88,SSE,158,8.1,8.1,91,0.00,CLR,,0.02,WeatherDisplay:10.37,2013-03-15 08:35:00,
2013-03-15 08:40:00,37.6,35.2,28.88,SSE,158,5.8,11.0,91,0.00,CLR,,0.02,WeatherDisplay:10.37,2013-03-15 08:40:00,
2013-03-15 08:45:00,37.6,35.2,28.88,SSW,202,4.6,5.1,91,0.00,CLR,,0.02,WeatherDisplay:10.37,2013-03-15 08:45:00,
2013-03-15 08:50:00,37.9,35.5,28.88,South,180,10.4,10.4,91,0.00,CLR,,0.02,WeatherDisplay:10.37,2013-03-15 08:50:00,
2013-03-15 08:55:00,38.5,36.1,28.88,South,180,9.2,9.2,91,0.00,CLR,,0.02,WeatherDisplay:10.37,2013-03-15 08:55:00,
2013-03-15 09:00:00,38.8,36.4,28.88,SSW,202,9.2,9.2,91,0.00,CLR,,0.02,WeatherDisplay:10.37,2013-03-15 09:00:00,
2013-03-15 09:05:00,38.8,36.7,28.88,SW,225,11.5,11.5,92,0.00,CLR,,0.02,WeatherDisplay:10.37,2013-03-15 09:05:00,
2013-03-15 09:10:00,39.0,36.9,28.88,South,180,10.4,11.4,92,0.00,CLR,,0.02,WeatherDisplay:10.37,2013-03-15 09:10:00,
2013-03-15 09:15:00,39.9,37.8,28.88,South,180,6.9,6.9,92,0.00,CLR,,0.02,WeatherDisplay:10.37,2013-03-15 09:15:00,
2013-03-15 09:20:00,39.9,37.8,28.88,West,270,3.5,7.0,92,0.00,CLR,,0.02,WeatherDisplay:10.37,2013-03-15 09:20:00,
2013-03-15 09:25:00,40.6,37.9,28.87,SSW,202,5.8,5.8,90,0.00,CLR,,0.02,WeatherDisplay:10.37,2013-03-15 09:25:00,
2013-03-15 09:30:00,40.6,37.9,28.87,ESE,112,10.4,10.4,90,0.00,CLR,,0.02,WeatherDisplay:10.37,2013-03-15 09:30:00,
2013-03-15 09:35:00,40.6,37.9,28.87,South,180,11.5,11.5,90,0.00,CLR,,0.02,WeatherDisplay:10.37,2013-03-15 09:35:00,
2013-03-15 09:40:00,40.6,37.9,28.87,SW,225,10.4,10.4,90,0.00,CLR,,0.02,WeatherDisplay:10.37,2013-03-15 09:40:00,
2013-03-15 09:45:00,40.8,38.1,28.87,SSE,158,12.7,12.7,90,0.00,CLR,,0.02,WeatherDisplay:10.37,2013-03-15 09:45:00,
2013-03-15 09:50:00,41.0,38.3,28.87,WSW,248,8.1,8.1,90,0.00,CLR,,0.02,WeatherDisplay:10.37,2013-03-15 09:50:00,
2013-03-15 09:55:00,40.8,38.1,28.87,South,180,6.9,7.1,90,0.00,CLR,,0.02,WeatherDisplay:10.37,2013-03-15 09:55:00,
2013-03-15 10:00:00,40.6,37.9,28.87,SW,225,10.4,10.4,90,0.00,CLR,,0.02,WeatherDisplay:10.37,2013-03-15 10:00:00,
2013-03-15 10:05:00,40.6,37.9,28.87,South,180,11.5,11.5,90,0.00,CLR,,0.02,WeatherDisplay:10.37,2013-03-15 10:05:00,
2013-03-15 10:10:00,40.6,37.9,28.87,SE,135,4.6,7.1,90,0.00,CLR,,0.02,WeatherDisplay:10.37,2013-03-15 10:10:00,
2013-03-15 10:15:00,40.6,37.9,28.87,SW,225,12.7,12.7,90,0.00,CLR,,0.02,WeatherDisplay:10.37,2013-03-15 10:15:00,
2013-03-15 10:20:00,40.6,37.9,28.87,SW,225,11.5,12.5,90,0.00,CLR,,0.02,WeatherDisplay:10.37,2013-03-15 10:20:00,
2013-03-15 10:25:00,40.5,37.5,28.86,SW,225,6.9,6.9,89,0.00,CLR,,0.02,WeatherDisplay:10.37,2013-03-15 10:25:00,
2013-03-15 10:30:00,40.5,37.5,28.86,SW,225,12.7,12.7,89,0.00,CLR,,0.02,WeatherDisplay:10.37,2013-03-15 10:30:00,
2013-03-15 10:35:00,40.6,37.7,28.86,SW,225,5.8,6.0,89,0.00,CLR,,0.02,WeatherDisplay:10.37,2013-03-15 10:35:00,
2013-03-15 10:40:00,40.6,37.7,28.86,South,180,3.5,4.5,89,0.00,CLR,,0.02,WeatherDisplay:10.37,2013-03-15 10:40:00,
2013-03-15 10:45:00,40.6,37.7,28.86,SW,225,8.1,8.1,89,0.00,CLR,,0.02,WeatherDisplay:10.37,2013-03-15 10:45:00,
2013-03-15 10:50:00,40.8,37.8,28.86,South,180,8.1,8.1,89,0.00,CLR,,0.02,WeatherDisplay:10.37,2013-03-15 10:50:00,
2013-03-15 10:55:00,40.8,37.8,28.86,SSW,202,10.4,10.4,89,0.00,CLR,,0.02,WeatherDisplay:10.37,2013-03-15 10:55:00,
2013-03-15 11:00:00,40.6,37.7,28.86,South,180,5.8,8.0,89,0.00,CLR,,0.02,WeatherDisplay:10.37,2013-03-15 11:00:00,
2013-03-15 11:05:00,40.8,37.8,28.86,SSW,202,8.1,8.1,89,0.00,CLR,,0.02,WeatherDisplay:10.37,2013-03-15 11:05:00,
2013-03-15 11:10:00,40.8,37.8,28.86,South,180,6.9,6.9,89,0.00,CLR,,0.02,WeatherDisplay:10.37,2013-03-15 11:10:00,
2013-03-15 11:15:00,41.0,38.0,28.86,SE,135,6.9,6.9,89,0.00,CLR,,0.02,WeatherDisplay:10.37,2013-03-15 11:15:00,
2013-03-15 11:20:00,41.2,38.2,28.86,SSW,202,10.4,10.4,89,0.00,CLR,,0.02,WeatherDisplay:10.37,2013-03-15 11:20:00,
2013-03-15 11:25:00,41.2,38.2,28.86,SSW,202,15.0,15.0,89,0.00,CLR,,0.02,WeatherDisplay:10.37,2013-03-15 11:25:00,
2013-03-15 11:30:00,41.7,38.7,28.86,West,270,9.2,9.2,89,0.00,CLR,,0.02,WeatherDisplay:10.37,2013-03-15 11:30:00,
2013-03-15 11:35:00,41.7,38.7,28.86,South,180,9.2,9.2,89,0.00,CLR,,0.02,WeatherDisplay:10.37,2013-03-15 11:35:00,
2013-03-15 11:40:00,41.7,38.7,28.86,South,180,4.6,8.5,89,0.00,CLR,,0.02,WeatherDisplay:10.37,2013-03-15 11:40:00,
2013-03-15 11:45:00,42.4,39.1,28.86,SSW,202,8.1,8.1,88,0.00,CLR,,0.02,WeatherDisplay:10.37,2013-03-15 11:45:00,
2013-03-15 11:50:00,42.4,39.1,28.86,SW,225,6.9,7.7,88,0.00,CLR,,0.02,WeatherDisplay:10.37,2013-03-15 11:50:00,
2013-03-15 11:55:00,42.8,39.2,28.86,WSW,248,11.5,11.5,87,0.00,CLR,,0.02,WeatherDisplay:10.37,2013-03-15 11:55:00,
2013-03-15 12:00:00,42.6,39.0,28.86,SSW,202,5.8,7.7,87,0.00,CLR,,0.02,WeatherDisplay:10.37,2013-03-15 12:00:00,
2013-03-15 12:05:00,42.4,38.5,28.86,SSW,202,11.5,11.5,86,0.00,CLR,,0.02,WeatherDisplay:10.37,2013-03-15 12:05:00,
2013-03-15 12:10:00,42.4,38.5,28.86,WSW,248,10.4,10.4,86,0.00,CLR,,0.02,WeatherDisplay:10.37,2013-03-15 12:10:00,
2013-03-15 12:15:00,42.4,38.5,28.86,SSW,202,9.2,9.4,86,0.00,CLR,,0.02,WeatherDisplay:10.37,2013-03-15 12:15:00,
2013-03-15 12:20:00,43.0,39.1,28.86,WSW,248,9.2,9.9,86,0.00,CLR,,0.02,WeatherDisplay:10.37,2013-03-15 12:20:00,
2013-03-15 12:25:00,43.5,39.6,28.86,WNW,292,12.7,12.7,86,0.00,CLR,,0.02,WeatherDisplay:10.37,2013-03-15 12:25:00,
2013-03-15 12:30:00,43.5,39.6,28.86,SSW,202,8.1,8.1,86,0.00,CLR,,0.02,WeatherDisplay:10.37,2013-03-15 12:30:00,
2013-03-15 12:35:00,43.5,39.6,28.86,WNW,292,5.8,5.8,86,0.00,CLR,,0.02,WeatherDisplay:10.37,2013-03-15 12:35:00,
2013-03-15 12:40:00,43.3,39.4,28.86,WSW,248,5.8,6.7,86,0.00,CLR,,0.02,WeatherDisplay:10.37,2013-03-15 12:40:00,
2013-03-15 12:45:00,42.6,38.7,28.86,SW,225,6.9,6.9,86,0.00,CLR,,0.02,WeatherDisplay:10.37,2013-03-15 12:45:00,
2013-03-15 12:50:00,42.4,38.2,28.86,SW,225,4.6,4.6,85,0.00,CLR,,0.02,WeatherDisplay:10.37,2013-03-15 12:50:00,
2013-03-15 12:55:00,42.4,38.2,28.86,SW,225,3.5,3.9,85,0.00,CLR,,0.02,WeatherDisplay:10.37,2013-03-15 12:55:00,
2013-03-15 13:00:00,42.4,38.5,28.86,WSW,248,2.3,4.2,86,0.00,CLR,,0.02,WeatherDisplay:10.37,2013-03-15 13:00:00,
2013-03-15 13:05:00,42.4,38.5,28.86,WSW,248,8.1,8.1,86,0.00,CLR,,0.02,WeatherDisplay:10.37,2013-03-15 13:05:00,
2013-03-15 13:10:00,42.4,38.5,28.86,West,270,1.1,5.9,86,0.00,CLR,,0.02,WeatherDisplay:10.37,2013-03-15 13:10:00,
2013-03-15 13:15:00,42.4,38.5,28.86,SW,225,6.9,6.9,86,0.00,CLR,,0.02,WeatherDisplay:10.37,2013-03-15 13:15:00,
2013-03-15 13:20:00,42.6,38.7,28.86,SW,225,15.0,15.0,86,0.00,CLR,,0.02,WeatherDisplay:10.37,2013-03-15 13:20:00,
2013-03-15 13:25:00,42.6,38.7,28.86,WSW,248,9.2,9.2,86,0.00,CLR,,0.02,WeatherDisplay:10.37,2013-03-15 13:25:00,
2013-03-15 13:30:00,42.6,38.7,28.86,SW,225,9.2,9.2,86,0.00,CLR,,0.02,WeatherDisplay:10.37,2013-03-15 13:30:00,
2013-03-15 13:35:00,42.4,38.2,28.86,WSW,248,5.8,5.8,85,0.00,CLR,,0.02,WeatherDisplay:10.37,2013-03-15 13:35:00,
2013-03-15 13:40:00,42.3,38.1,28.86,WSW,248,3.5,5.0,85,0.00,CLR,,0.02,WeatherDisplay:10.37,2013-03-15 13:40:00,
2013-03-15 13:45:00,42.1,37.9,28.86,SW,225,4.6,4.6,85,0.00,CLR,,0.02,WeatherDisplay:10.37,2013-03-15 13:45:00,
2013-03-15 13:50:00,42.4,38.2,28.86,SW,225,3.5,4.1,85,0.00,CLR,,0.02,WeatherDisplay:10.37,2013-03-15 13:50:00,
2013-03-15 13:55:00,42.6,38.4,28.86,WSW,248,8.1,8.1,85,0.00,CLR,,0.02,WeatherDisplay:10.37,2013-03-15 13:55:00,
2013-03-15 14:00:00,43.0,38.8,28.86,South,180,8.1,8.1,85,0.00,CLR,,0.02,WeatherDisplay:10.37,2013-03-15 14:00:00,
2013-03-15 14:05:00,43.2,39.0,28.86,WSW,248,3.5,3.5,85,0.00,CLR,,0.02,WeatherDisplay:10.37,2013-03-15 14:05:00,
2013-03-15 14:10:00,43.2,39.0,28.86,SSW,202,3.5,3.5,85,0.00,CLR,,0.02,WeatherDisplay:10.37,2013-03-15 14:10:00,
2013-03-15 14:15:00,43.2,38.7,28.86,WSW,248,5.8,5.8,84,0.00,CLR,,0.02,WeatherDisplay:10.37,2013-03-15 14:15:00,
2013-03-15 14:20:00,43.2,38.7,28.86,West,270,4.6,5.9,84,0.00,CLR,,0.02,WeatherDisplay:10.37,2013-03-15 14:20:00,
2013-03-15 14:25:00,43.5,39.0,28.86,WSW,248,10.4,10.4,84,0.00,CLR,,0.02,WeatherDisplay:10.37,2013-03-15 14:25:00,
2013-03-15 14:30:00,43.7,39.2,28.86,West,270,5.8,5.8,84,0.00,CLR,,0.02,WeatherDisplay:10.37,2013-03-15 14:30:00,
2013-03-15 14:35:00,43.9,39.4,28.85,WSW,248,9.2,9.2,84,0.00,CLR,,0.02,WeatherDisplay:10.37,2013-03-15 14:35:00,
2013-03-15 14:40:00,43.9,39.4,28.85,SW,225,6.9,12.1,84,0.00,CLR,,0.02,WeatherDisplay:10.37,2013-03-15 14:40:00,
2013-03-15 14:45:00,43.5,38.4,28.85,SW,225,9.2,9.5,82,0.00,CLR,,0.02,WeatherDisplay:10.37,2013-03-15 14:45:00,
2013-03-15 14:50:00,43.5,38.4,28.85,WSW,248,10.4,10.4,82,0.00,CLR,,0.02,WeatherDisplay:10.37,2013-03-15 14:50:00,
2013-03-15 14:55:00,43.5,38.4,28.85,West,270,5.8,5.8,82,0.00,CLR,,0.02,WeatherDisplay:10.37,2013-03-15 14:55:00,
2013-03-15 15:00:00,43.7,38.6,28.85,South,180,3.5,14.6,82,0.00,CLR,,0.02,WeatherDisplay:10.37,2013-03-15 15:00:00,
2013-03-15 15:05:00,43.7,38.6,28.85,West,270,6.9,6.9,82,0.00,CLR,,0.02,WeatherDisplay:10.37,2013-03-15 15:05:00,
2013-03-15 15:10:00,43.7,38.6,28.85,SSW,202,4.6,4.6,82,0.00,CLR,,0.02,WeatherDisplay:10.37,2013-03-15 15:10:00,
2013-03-15 15:15:00,43.5,38.4,28.86,WNW,292,5.8,5.8,82,0.00,CLR,,0.02,WeatherDisplay:10.37,2013-03-15 15:15:00,
2013-03-15 15:20:00,43.5,38.4,28.86,WSW,248,2.3,2.3,82,0.00,CLR,,0.02,WeatherDisplay:10.37,2013-03-15 15:20:00,
2013-03-15 15:25:00,43.5,37.8,28.86,SW,225,5.8,5.8,80,0.00,CLR,,0.02,WeatherDisplay:10.37,2013-03-15 15:25:00,
2013-03-15 15:30:00,43.5,37.8,28.86,SW,225,3.5,4.6,80,0.00,CLR,,0.02,WeatherDisplay:10.37,2013-03-15 15:30:00,
2013-03-15 15:35:00,43.9,38.1,28.86,West,270,3.5,3.8,80,0.00,CLR,,0.02,WeatherDisplay:10.37,2013-03-15 15:35:00,
2013-03-15 15:40:00,43.9,38.1,28.86,WSW,248,6.9,7.1,80,0.00,CLR,,0.02,WeatherDisplay:10.37,2013-03-15 15:40:00,
2013-03-15 15:45:00,43.7,37.9,28.86,SSW,202,6.9,6.9,80,0.00,CLR,,0.02,WeatherDisplay:10.37,2013-03-15 15:45:00,
2013-03-15 15:50:00,43.7,37.9,28.85,SSE,158,2.3,3.1,80,0.00,CLR,,0.02,WeatherDisplay:10.37,2013-03-15 15:50:00,
2013-03-15 15:55:00,43.7,37.9,28.85,West,270,12.7,12.7,80,0.00,CLR,,0.02,WeatherDisplay:10.37,2013-03-15 15:55:00,
2013-03-15 16:00:00,43.7,37.9,28.85,SW,225,12.7,12.7,80,0.00,CLR,,0.02,WeatherDisplay:10.37,2013-03-15 16:00:00,
2013-03-15 16:05:00,43.3,37.6,28.85,SW,225,11.5,11.5,80,0.00,CLR,,0.02,WeatherDisplay:10.37,2013-03-15 16:05:00,
2013-03-15 16:10:00,43.0,37.2,28.85,West,270,2.3,4.4,80,0.00,CLR,,0.02,WeatherDisplay:10.37,2013-03-15 16:10:00,
2013-03-15 16:15:00,43.0,37.2,28.85,WSW,248,12.7,12.7,80,0.00,CLR,,0.02,WeatherDisplay:10.37,2013-03-15 16:15:00,
2013-03-15 16:20:00,42.4,36.7,28.85,SSW,202,9.2,9.2,80,0.00,CLR,,0.02,WeatherDisplay:10.37,2013-03-15 16:20:00,
2013-03-15 16:25:00,42.4,36.7,28.85,SSW,202,9.2,9.2,80,0.00,CLR,,0.02,WeatherDisplay:10.37,2013-03-15 16:25:00,
2013-03-15 16:30:00,42.1,35.7,28.85,SSW,202,12.7,12.7,78,0.00,CLR,,0.02,WeatherDisplay:10.37,2013-03-15 16:30:00,
2013-03-15 16:35:00,41.9,35.5,28.85,SW,225,16.1,16.5,78,0.00,CLR,,0.02,WeatherDisplay:10.37,2013-03-15 16:35:00,
2013-03-15 16:40:00,41.9,35.5,28.85,SSW,202,9.2,9.2,78,0.00,CLR,,0.02,WeatherDisplay:10.37,2013-03-15 16:40:00,
2013-03-15 16:45:00,41.5,35.2,28.85,West,270,5.8,5.8,78,0.00,CLR,,0.02,WeatherDisplay:10.37,2013-03-15 16:45:00,
2013-03-15 16:50:00,41.4,34.7,28.85,SSW,202,11.5,11.5,77,0.00,CLR,,0.02,WeatherDisplay:10.37,2013-03-15 16:50:00,
2013-03-15 16:55:00,41.2,34.5,28.85,SW,225,10.4,10.4,77,0.00,CLR,,0.02,WeatherDisplay:10.37,2013-03-15 16:55:00,
2013-03-15 17:00:00,41.2,34.5,28.85,SSW,202,6.9,6.9,77,0.00,CLR,,0.02,WeatherDisplay:10.37,2013-03-15 17:00:00,
2013-03-15 17:05:00,41.0,34.3,28.85,WSW,248,9.2,9.2,77,0.00,CLR,,0.02,WeatherDisplay:10.37,2013-03-15 17:05:00,
2013-03-15 17:10:00,41.0,34.3,28.85,West,270,6.9,8.6,77,0.00,CLR,,0.02,WeatherDisplay:10.37,2013-03-15 17:10:00,
2013-03-15 17:16:00,40.8,34.2,28.85,SSW,202,9.2,9.2,77,0.00,CLR,,0.02,WeatherDisplay:10.37,2013-03-15 17:16:00,
2013-03-15 17:21:00,40.8,34.2,28.85,SW,225,9.2,9.2,77,0.00,CLR,,0.02,WeatherDisplay:10.37,2013-03-15 17:21:00,
2013-03-15 17:26:00,40.6,34.0,28.85,SSW,202,3.5,3.5,77,0.00,CLR,,0.02,WeatherDisplay:10.37,2013-03-15 17:26:00,
2013-03-15 17:31:00,40.5,33.8,28.85,SW,225,9.6,9.6,77,0.00,CLR,,0.02,WeatherDisplay:10.37,2013-03-15 17:31:00,
2013-03-15 17:36:00,40.3,33.6,28.85,SSW,202,5.8,9.2,77,0.00,CLR,,0.02,WeatherDisplay:10.37,2013-03-15 17:36:00,
2013-03-15 17:41:00,40.1,33.8,28.87,SSW,202,5.8,5.8,78,0.00,CLR,,0.02,WeatherDisplay:10.37,2013-03-15 17:41:00,
2013-03-15 17:46:00,40.1,33.8,28.87,SW,225,6.9,6.9,78,0.00,CLR,,0.02,WeatherDisplay:10.37,2013-03-15 17:46:00,
2013-03-15 17:51:00,40.1,33.8,28.87,WSW,248,6.9,6.9,78,0.00,CLR,,0.02,WeatherDisplay:10.37,2013-03-15 17:51:00,
2013-03-15 17:56:00,39.7,33.4,28.87,SSW,202,6.9,6.9,78,0.00,CLR,,0.02,WeatherDisplay:10.37,2013-03-15 17:56:00,
2013-03-15 18:01:00,39.6,33.3,28.87,SW,225,2.3,4.1,78,0.00,CLR,,0.02,WeatherDisplay:10.37,2013-03-15 18:01:00,
2013-03-15 18:06:00,39.4,33.4,28.86,SW,225,4.6,4.6,79,0.00,CLR,,0.02,WeatherDisplay:10.37,2013-03-15 18:06:00,
2013-03-15 18:11:00,39.4,33.4,28.86,SSW,202,5.8,5.8,79,0.00,CLR,,0.02,WeatherDisplay:10.37,2013-03-15 18:11:00,
2013-03-15 18:16:00,39.4,33.4,28.86,SE,135,2.3,2.3,79,0.00,CLR,,0.02,WeatherDisplay:10.37,2013-03-15 18:16:00,
2013-03-15 18:21:00,38.8,33.2,28.87,South,180,2.3,2.3,80,0.00,CLR,,0.02,WeatherDisplay:10.37,2013-03-15 18:21:00,
2013-03-15 18:26:00,38.8,33.2,28.87,SSE,158,3.5,3.7,80,0.00,CLR,,0.02,WeatherDisplay:10.37,2013-03-15 18:26:00,
2013-03-15 18:31:00,38.7,33.0,28.87,South,180,2.3,2.3,80,0.00,CLR,,0.02,WeatherDisplay:10.37,2013-03-15 18:31:00,
2013-03-15 18:36:00,38.3,32.7,28.87,SSE,158,1.1,1.6,80,0.00,CLR,,0.02,WeatherDisplay:10.37,2013-03-15 18:36:00,
2013-03-15 18:41:00,38.1,32.5,28.87,SE,135,3.1,3.1,80,0.00,CLR,,0.02,WeatherDisplay:10.37,2013-03-15 18:41:00,
2013-03-15 18:46:00,37.9,32.6,28.87,SE,135,3.5,4.0,81,0.00,CLR,,0.02,WeatherDisplay:10.37,2013-03-15 18:46:00,
2013-03-15 18:51:00,37.8,32.5,28.87,SSE,158,3.5,3.5,81,0.00,CLR,,0.02,WeatherDisplay:10.37,2013-03-15 18:51:00,
2013-03-15 18:56:00,37.4,32.1,28.87,SSE,158,4.6,4.6,81,0.00,CLR,,0.02,WeatherDisplay:10.37,2013-03-15 18:56:00,
2013-03-15 19:01:00,37.2,31.9,28.87,South,180,3.8,3.8,81,0.00,CLR,,0.02,WeatherDisplay:10.37,2013-03-15 19:01:00,
2013-03-15 19:06:00,37.0,31.8,28.87,SE,135,2.3,2.3,81,0.00,CLR,,0.02,WeatherDisplay:10.37,2013-03-15 19:06:00,
2013-03-15 19:11:00,36.9,31.9,28.87,East,90,0.0,0.0,82,0.00,CLR,,0.02,WeatherDisplay:10.37,2013-03-15 19:11:00,
2013-03-15 19:16:00,36.7,31.7,28.87,North,0,1.1,1.1,82,0.00,CLR,,0.02,WeatherDisplay:10.37,2013-03-15 19:16:00,
2013-03-15 19:21:00,36.5,31.5,28.87,NNE,22,0.0,0.0,82,0.00,CLR,,0.02,WeatherDisplay:10.37,2013-03-15 19:21:00,
2013-03-15 19:26:00,36.5,31.5,28.87,NNE,22,0.0,0.0,82,0.00,CLR,,0.02,WeatherDisplay:10.37,2013-03-15 19:26:00,
2013-03-15 19:31:00,36.1,31.2,28.87,NNE,22,0.0,0.0,82,0.00,CLR,,0.02,WeatherDisplay:10.37,2013-03-15 19:31:00,
2013-03-15 19:36:00,35.8,30.8,28.87,East,90,0.0,0.0,82,0.00,CLR,,0.02,WeatherDisplay:10.37,2013-03-15 19:36:00,
2013-03-15 19:41:00,35.8,30.8,28.87,East,90,0.0,0.0,82,0.00,CLR,,0.02,WeatherDisplay:10.37,2013-03-15 19:41:00,
2013-03-15 19:46:00,35.4,30.8,28.87,SE,135,3.5,3.5,83,0.00,CLR,,0.02,WeatherDisplay:10.37,2013-03-15 19:46:00,
2013-03-15 19:51:00,35.4,30.8,28.87,SSE,158,4.6,4.6,83,0.00,CLR,,0.02,WeatherDisplay:10.37,2013-03-15 19:51:00,
2013-03-15 19:56:00,35.4,31.1,28.87,SE,135,4.6,4.9,84,0.00,CLR,,0.02,WeatherDisplay:10.37,2013-03-15 19:56:00,
2013-03-15 20:01:00,35.4,31.1,28.87,SE,135,5.8,5.8,84,0.00,CLR,,0.02,WeatherDisplay:10.37,2013-03-15 20:01:00,
2013-03-15 20:06:00,35.2,30.9,28.87,SSE,158,4.6,4.6,84,0.00,CLR,,0.02,WeatherDisplay:10.37,2013-03-15 20:06:00,
2013-03-15 20:11:00,35.2,30.9,28.87,SE,135,3.5,3.7,84,0.00,CLR,,0.02,WeatherDisplay:10.37,2013-03-15 20:11:00,
2013-03-15 20:16:00,35.2,31.2,28.87,SE,135,3.5,3.5,85,0.00,CLR,,0.02,WeatherDisplay:10.37,2013-03-15 20:16:00,
2013-03-15 20:21:00,35.2,31.2,28.87,SE,135,4.6,4.7,85,0.00,CLR,,0.02,WeatherDisplay:10.37,2013-03-15 20:21:00,
2013-03-15 20:26:00,35.2,31.2,28.87,SE,135,6.9,6.9,85,0.00,CLR,,0.02,WeatherDisplay:10.37,2013-03-15 20:26:00,
2013-03-15 20:31:00,35.2,31.2,28.87,SSE,158,5.4,5.4,85,0.00,CLR,,0.02,WeatherDisplay:10.37,2013-03-15 20:31:00,
2013-03-15 20:36:00,35.2,31.2,28.87,SE,135,5.8,5.8,85,0.00,CLR,,0.02,WeatherDisplay:10.37,2013-03-15 20:36:00,
2013-03-15 20:41:00,35.4,31.6,28.87,SSE,158,3.5,3.5,86,0.00,CLR,,0.02,WeatherDisplay:10.37,2013-03-15 20:41:00,
2013-03-15 20:46:00,35.6,31.8,28.87,SSE,158,6.9,6.9,86,0.00,CLR,,0.02,WeatherDisplay:10.37,2013-03-15 20:46:00,
2013-03-15 20:51:00,35.8,32.0,28.87,SSE,158,3.5,3.5,86,0.00,CLR,,0.02,WeatherDisplay:10.37,2013-03-15 20:51:00,
2013-03-15 20:56:00,36.0,32.2,28.87,SSE,158,3.5,3.5,86,0.00,CLR,,0.02,WeatherDisplay:10.37,2013-03-15 20:56:00,
2013-03-15 21:01:00,36.0,32.2,28.87,ESE,112,3.5,3.6,86,0.00,CLR,,0.02,WeatherDisplay:10.37,2013-03-15 21:01:00,
2013-03-15 21:06:00,36.0,32.2,28.87,SSE,158,4.6,4.6,86,0.00,CLR,,0.02,WeatherDisplay:10.37,2013-03-15 21:06:00,
2013-03-15 21:11:00,35.8,32.0,28.87,SE,135,3.5,3.5,86,0.00,CLR,,0.02,WeatherDisplay:10.37,2013-03-15 21:11:00,
2013-03-15 21:16:00,35.8,32.0,28.87,SE,135,2.3,2.3,86,0.00,CLR,,0.02,WeatherDisplay:10.37,2013-03-15 21:16:00,
2013-03-15 21:21:00,35.8,32.0,28.87,West,270,2.3,2.3,86,0.00,CLR,,0.02,WeatherDisplay:10.37,2013-03-15 21:21:00,
2013-03-15 21:26:00,35.8,32.0,28.87,WNW,292,2.3,2.4,86,0.00,CLR,,0.02,WeatherDisplay:10.37,2013-03-15 21:26:00,
2013-03-15 21:31:00,36.0,32.2,28.87,SW,225,1.1,1.6,86,0.00,CLR,,0.02,WeatherDisplay:10.37,2013-03-15 21:31:00,
2013-03-15 21:36:00,36.0,32.2,28.87,South,180,0.0,0.0,86,0.00,CLR,,0.02,WeatherDisplay:10.37,2013-03-15 21:36:00,
2013-03-15 21:41:00,35.8,32.0,28.87,SSE,158,0.7,0.0,86,0.00,CLR,,0.02,WeatherDisplay:10.37,2013-03-15 21:41:00,
2013-03-15 21:46:00,35.8,32.0,28.87,SSE,158,0.0,0.0,86,0.00,CLR,,0.02,WeatherDisplay:10.37,2013-03-15 21:46:00,
2013-03-15 21:51:00,35.4,31.6,28.87,SSE,158,0.0,0.0,86,0.00,CLR,,0.02,WeatherDisplay:10.37,2013-03-15 21:51:00,
2013-03-15 21:56:00,35.4,31.6,28.87,SSW,202,0.0,0.0,86,0.00,CLR,,0.02,WeatherDisplay:10.37,2013-03-15 21:56:00,
2013-03-15 22:01:00,35.4,31.6,28.87,SW,225,0.0,0.0,86,0.00,CLR,,0.02,WeatherDisplay:10.37,2013-03-15 22:01:00,
2013-03-15 22:06:00,35.4,31.6,28.87,SW,225,0.0,0.0,86,0.00,CLR,,0.02,WeatherDisplay:10.37,2013-03-15 22:06:00,
2013-03-15 22:11:00,35.4,31.9,28.87,SE,135,1.1,1.1,87,0.00,CLR,,0.02,WeatherDisplay:10.37,2013-03-15 22:11:00,
2013-03-15 22:16:00,35.4,31.9,28.87,ESE,112,1.1,1.1,87,0.00,CLR,,0.02,WeatherDisplay:10.37,2013-03-15 22:16:00,
2013-03-15 22:21:00,35.4,31.9,28.87,ENE,68,0.0,0.0,87,0.00,CLR,,0.02,WeatherDisplay:10.37,2013-03-15 22:21:00,
2013-03-15 22:26:00,35.4,31.9,28.87,NNW,338,1.1,1.1,87,0.00,CLR,,0.02,WeatherDisplay:10.37,2013-03-15 22:26:00,
2013-03-15 22:31:00,35.4,31.9,28.87,NNW,338,0.0,0.0,87,0.00,CLR,,0.02,WeatherDisplay:10.37,2013-03-15 22:31:00,
2013-03-15 22:36:00,35.2,31.8,28.87,NE,45,0.0,0.0,87,0.00,CLR,,0.02,WeatherDisplay:10.37,2013-03-15 22:36:00,
2013-03-15 22:41:00,35.2,31.8,28.87,ENE,68,1.6,1.6,87,0.00,CLR,,0.02,WeatherDisplay:10.37,2013-03-15 22:41:00,
2013-03-15 22:46:00,34.9,31.4,28.87,ENE,68,1.1,1.1,87,0.00,CLR,,0.02,WeatherDisplay:10.37,2013-03-15 22:46:00,
2013-03-15 22:51:00,34.9,31.4,28.87,ENE,68,0.0,0.0,87,0.00,CLR,,0.02,WeatherDisplay:10.37,2013-03-15 22:51:00,
2013-03-15 22:56:00,34.7,30.9,28.87,North,0,0.0,0.0,86,0.00,CLR,,0.02,WeatherDisplay:10.37,2013-03-15 22:56:00,
2013-03-15 23:01:00,34.5,30.8,28.87,North,0,0.0,0.0,86,0.00,CLR,,0.02,WeatherDisplay:10.37,2013-03-15 23:01:00,
2013-03-15 23:06:00,34.3,30.6,28.87,North,0,0.0,0.0,86,0.00,CLR,,0.02,WeatherDisplay:10.37,2013-03-15 23:06:00,
2013-03-15 23:11:00,34.3,30.6,28.87,North,0,0.0,0.0,86,0.00,CLR,,0.02,WeatherDisplay:10.37,2013-03-15 23:11:00,
2013-03-15 23:16:00,34.0,30.2,28.87,NE,45,2.3,2.3,86,0.00,CLR,,0.02,WeatherDisplay:10.37,2013-03-15 23:16:00,
2013-03-15 23:21:00,34.0,30.5,28.87,NE,45,2.3,2.3,87,0.00,CLR,,0.02,WeatherDisplay:10.37,2013-03-15 23:21:00,
2013-03-15 23:26:00,34.0,30.5,28.87,NE,45,0.0,0.0,87,0.00,CLR,,0.02,WeatherDisplay:10.37,2013-03-15 23:26:00,
2013-03-15 23:31:00,34.0,30.5,28.86,ENE,68,0.0,0.0,87,0.00,CLR,,0.02,WeatherDisplay:10.37,2013-03-15 23:31:00,
2013-03-15 23:36:00,34.0,30.5,28.86,ENE,68,1.1,1.1,87,0.00,CLR,,0.02,WeatherDisplay:10.37,2013-03-15 23:36:00,
2013-03-15 23:41:00,34.0,30.5,28.86,ESE,112,1.1,1.1,87,0.00,CLR,,0.02,WeatherDisplay:10.37,2013-03-15 23:41:00,
2013-03-15 23:46:00,33.8,30.3,28.86,ESE,112,1.1,1.1,87,0.00,CLR,,0.02,WeatherDisplay:10.37,2013-03-15 23:46:00,
2013-03-15 23:51:00,33.8,30.3,28.86,NE,45,1.1,1.1,87,0.00,CLR,,0.02,WeatherDisplay:10.37,2013-03-15 23:51:00,
2013-03-15 23:56:00,33.6,30.2,28.86,NE,45,1.1,1.6,87,0.00,CLR,,0.02,WeatherDisplay:10.37,2013-03-15 23:56:00,